Flag for Mexico Weather past 2 weeks in Saltillo, Coahuila, Mexico

Now
66 °F

Fog.


Feels Like: 66 °F
Forecast: 58 / 78 °F
Wind: 7 mph from East

Location: Monterrey / Gen Maria

Current Time: Apr 1, 2015 at 4:05:20 AM

Latest Report: Apr 1, 2015 at 2:40 AM


Visibility: 2 mi

Pressure: 29.88 "Hg

Humidity: 94%

Dew point: 64 °F

Location of SaltilloLocation

Historic Weather in Saltillo — Graph

°F

Saltillo temperature yesterday

Maximum temperature yesterday: 77 °F (at 3:49 PM)
Minimum temperature yesterday: 66 °F (at 4:40 AM)
Average temperature yesterday: 71 °F

Past Weeks' High & Low Weather Summary

 TemperatureHumidityPressure
High84 °F (Mar 29, 1:46 PM)100% (Mar 17, 3:45 AM)30.29 "Hg (Mar 17, 3:45 AM)
Low50 °F (Mar 28, 5:40 AM)14% (Mar 27, 1:40 PM)29.84 "Hg (Mar 25, 4:45 PM)
Average68 °F74%30.03 "Hg
* Reported Mar 17 2:47 AM — Apr 1 2:40 AM, Saltillo, Weather by CustomWeather, © 2015

Note: Actual official high and low records may vary slightly from our data, if they occured in-between our weather recording intervals... More about our weather records

Advertising

Saltillo weather history for previous 24 hours

 ConditionsComfort  
Time TempWeatherWind HumidityBarometerVisibility
2:40 AM
Wed, Apr 1
66 °FFog.7 mph94%29.88 "Hg2 mi
1:50 AM66 °FOvercast.7 mph94%29.88 "Hg4 mi
12:49 AM68 °FOvercast.No wind88%29.93 "Hg4 mi
11:50 PM
Tue, Mar 31
68 °FOvercast.8 mph88%29.94 "Hg5 mi
10:45 PM70 °FOvercast.7 mph73%29.95 "Hg5 mi
9:42 PM68 °FPassing clouds.5 mph78%29.95 "Hg6 mi
7:46 PM70 °FPassing clouds.3 mph73%29.94 "Hg6 mi
5:50 PM75 °FPartly sunny.8 mph61%29.92 "Hg6 mi
4:45 PM75 °FPartly sunny.9 mph61%29.93 "Hg5 mi
3:49 PM77 °FPartly sunny.9 mph54%29.94 "Hg5 mi
2:49 PM75 °FPartly sunny.9 mph61%29.95 "Hg5 mi
1:49 PM73 °FMostly cloudy.8 mph65%29.99 "Hg5 mi
12:42 PM73 °FMostly cloudy.10 mph69%30.01 "Hg4 mi
11:40 AM72 °FMostly cloudy.9 mph73%30.02 "Hg4 mi
8:44 AM68 °FFog.5 mph94%30.04 "Hg3 mi
7:48 AM66 °FFog.No wind94%30.04 "Hg1 mi
4:40 AM66 °FFog.6 mph94%29.99 "Hg3 mi
Weather by CustomWeather, © 2015

See weather overviewHow to use our weather pages